PulseSat

PulseSat

GSAT0212 (GALILEO 16)

Last updated on Dec. 10, 2018, 12:08 a.m. UTC

1 41860U 16069B   18342.62722196  .00000066  00000-0  00000+0 0  9995
2 41860  54.5858 177.3204 0002477 349.7835  10.2656  1.70473400 12817
UTC
Height (km)
Latitude
Longitude
Inclination
Orbital Period

Next 30 passes for location: Hong Kong

Rise time Rise Azimuth (degrees) Set time Set Azimuth (degrees) Duration Max altitude (degrees)

No matching passes for this satellites

PulseSat

PulseSat is the new satellites software and hardware trackering solution by Pulsely.
Satellite Two Line Element Set source: US Air Force Space Command

Download PulseSat for iOS
© 2017 Pulsely Limited